| time (UTC) | temp F | wind direction | speed MPH | gust MPH | rain 1hr in | rain 24hr in | rain mn in | humidity % | barometer mb |
| 20260901095311 | 67 | 266 | 0.0 | 1.0 | 0.00 | 0.00 | 0.00 | 65 | 1023.4 |
| 20260901095110 | 67 | 69 | 0.0 | 1.0 | 0.00 | 0.00 | 0.00 | 64 | 1023.4 |
| 20260901094909 | 67 | 290 | 0.0 | 2.0 | 0.00 | 0.00 | 0.00 | 66 | 1023.4 |
| 20260901094659 | 67 | 291 | 0.0 | 2.0 | 0.00 | 0.00 | 0.00 | 64 | 1023.4 |
| 20260901094448 | 67 | 48 | 0.0 | 2.0 | 0.00 | 0.00 | 0.00 | 65 | 1023.5 |
| 20260901094238 | 67 | 283 | 0.0 | 2.0 | 0.00 | 0.00 | 0.00 | 65 | 1023.5 |
| 20260901094031 | 67 | 231 | 0.0 | 2.0 | 0.00 | 0.00 | 0.00 | 66 | 1023.4 |
| 20260901093823 | 67 | 194 | 0.0 | 2.0 | 0.00 | 0.00 | 0.00 | 69 | 1023.5 |
| 20260901093616 | 66 | 247 | 0.0 | 1.0 | 0.00 | 0.00 | 0.00 | 68 | 1023.5 |
| 20260901093406 | 66 | 240 | 0.0 | 0.0 | 0.00 | 0.00 | 0.00 | 70 | 1023.4 |
| 20260901093205 | 66 | 356 | 0.0 | 3.0 | 0.00 | 0.00 | 0.00 | 67 | 1023.4 |
| 20260901093000 | 65 | 356 | 0.0 | 3.0 | 0.00 | 0.00 | 0.00 | 68 | 1023.6 |
| 20260901092757 | 65 | 74 | 1.0 | 3.0 | 0.00 | 0.00 | 0.00 | 67 | 1023.6 |
| 20260901092237 | 65 | 50 | 0.0 | 3.0 | 0.00 | 0.00 | 0.00 | 68 | 1023.6 |
| 20260901092034 | 65 | 58 | 0.0 | 3.0 | 0.00 | 0.00 | 0.00 | 68 | 1023.6 |
| 20260901091825 | 66 | 43 | 0.0 | 3.0 | 0.00 | 0.00 | 0.00 | 67 | 1023.7 |
| 20260901091259 | 65 | 103 | 0.0 | 3.0 | 0.00 | 0.00 | 0.00 | 68 | 1023.6 |
| 20260901091057 | 65 | 51 | 0.0 | 3.0 | 0.00 | 0.00 | 0.00 | 68 | 1023.5 |
| 20260901090857 | 65 | 56 | 0.0 | 3.0 | 0.00 | 0.00 | 0.00 | 69 | 1023.5 |
| 20260901090648 | 65 | 36 | 0.0 | 3.0 | 0.00 | 0.00 | 0.00 | 68 | 1023.6 |
| 20260901090445 | 65 | 44 | 0.0 | 3.0 | 0.00 | 0.00 | 0.00 | 67 | 1023.6 |
| 20260901090240 | 65 | 73 | 0.0 | 1.0 | 0.00 | 0.00 | 0.00 | 69 | 1023.6 |
| 20260901090037 | 65 | 262 | 0.0 | 1.0 | 0.00 | 0.00 | 0.00 | 69 | 1023.5 |
| 20260901085831 | 65 | 267 | 0.0 | 1.0 | 0.00 | 0.00 | 0.00 | 68 | 1023.6 |
| 20260901085632 | 65 | 56 | 0.0 | 2.0 | 0.00 | 0.00 | 0.00 | 68 | 1023.5 |
| 20260901084753 | 67 | 57 | 0.0 | 1.0 | 0.00 | 0.00 | 0.00 | 69 | 1023.5 |
| 20260901084545 | 67 | 58 | 0.0 | 1.0 | 0.00 | 0.00 | 0.00 | 68 | 1023.4 |
| 20260901084343 | 66 | 53 | 0.0 | 1.0 | 0.00 | 0.00 | 0.00 | 72 | 1023.4 |
| 20260901084138 | 66 | 82 | 0.0 | 0.0 | 0.00 | 0.00 | 0.00 | 71 | 1023.4 |
| 20260901083933 | 65 | 293 | 0.0 | 1.0 | 0.00 | 0.00 | 0.00 | 69 | 1023.4 |
| 20260901083729 | 65 | 297 | 0.0 | 0.0 | 0.00 | 0.00 | 0.00 | 70 | 1023.3 |
| 20260901083519 | 65 | 283 | 0.0 | 0.0 | 0.00 | 0.00 | 0.00 | 69 | 1023.4 |
| 20260901083311 | 65 | 62 | 0.0 | 0.0 | 0.00 | 0.00 | 0.00 | 72 | 1023.4 |
| 20260901082739 | 64 | 288 | 0.0 | 1.0 | 0.00 | 0.00 | 0.00 | 72 | 1023.5 |
| 20260901082530 | 63 | 288 | 0.0 | 1.0 | 0.00 | 0.00 | 0.00 | 72 | 1023.5 |
| 20260901082325 | 63 | 288 | 0.0 | 1.0 | 0.00 | 0.00 | 0.00 | 71 | 1023.5 |
| 20260901082121 | 64 | 287 | 0.0 | 1.0 | 0.00 | 0.00 | 0.00 | 71 | 1023.4 |
| 20260901081919 | 64 | 287 | 0.0 | 0.0 | 0.00 | 0.00 | 0.00 | 72 | 1023.4 |
| 20260901081716 | 64 | 287 | 0.0 | 1.0 | 0.00 | 0.00 | 0.00 | 73 | 1023.4 |
| 20260901081506 | 64 | 285 | 0.0 | 1.0 | 0.00 | 0.00 | 0.00 | 71 | 1023.4 |
| 20260901081257 | 64 | 287 | 0.0 | 1.0 | 0.00 | 0.00 | 0.00 | 71 | 1023.5 |
| 20260901080414 | 63 | 42 | 0.0 | 1.0 | 0.00 | 0.00 | 0.00 | 75 | 1023.4 |
| 20260901080206 | 63 | 290 | 0.0 | 0.0 | 0.00 | 0.00 | 0.00 | 72 | 1023.4 |
| 20260901080006 | 63 | 280 | 0.0 | 3.0 | 0.00 | 0.00 | 0.00 | 72 | 1023.3 |
| 20260901075805 | 63 | 280 | 0.0 | 3.0 | 0.00 | 0.00 | 0.00 | 72 | 1023.3 |
| 20260901075247 | 63 | 47 | 0.0 | 3.0 | 0.00 | 0.00 | 0.00 | 72 | 1023.3 |
| 20260901075041 | 63 | 15 | 0.0 | 3.0 | 0.00 | 0.00 | 0.00 | 72 | 1023.2 |
| 20260901074835 | 63 | 63 | 0.0 | 3.0 | 0.00 | 0.00 | 0.00 | 72 | 1023.2 |
| 20260901074629 | 63 | 65 | 0.0 | 3.0 | 0.00 | 0.00 | 0.00 | 72 | 1023.1 |
| 20260901074428 | 63 | 80 | 0.0 | 3.0 | 0.00 | 0.00 | 0.00 | 73 | 1023.1 |
| 20260901074227 | 63 | 53 | 0.0 | 3.0 | 0.00 | 0.00 | 0.00 | 74 | 1023.0 |
| 20260901074020 | 62 | 50 | 0.0 | 2.0 | 0.00 | 0.00 | 0.00 | 76 | 1023.1 |
| 20260901073446 | 62 | 68 | 0.0 | 2.0 | 0.00 | 0.00 | 0.00 | 71 | 1023.0 |
| 20260901073241 | 62 | 58 | 0.0 | 3.0 | 0.00 | 0.00 | 0.00 | 73 | 1023.0 |
| 20260901073041 | 62 | 114 | 0.0 | 3.0 | 0.00 | 0.00 | 0.00 | 73 | 1023.1 |
| 20260901072834 | 62 | 127 | 0.0 | 3.0 | 0.00 | 0.00 | 0.00 | 73 | 1023.0 |
| 20260901072625 | 61 | 69 | 0.0 | 3.0 | 0.00 | 0.00 | 0.00 | 72 | 1023.0 |
| 20260901072415 | 61 | 44 | 0.0 | 3.0 | 0.00 | 0.00 | 0.00 | 74 | 1023.0 |
| 20260901072215 | 61 | 115 | 0.0 | 3.0 | 0.00 | 0.00 | 0.00 | 74 | 1023.0 |
| 20260901072016 | 61 | 120 | 0.0 | 3.0 | 0.00 | 0.00 | 0.00 | 75 | 1023.0 |
| 20260901071812 | 61 | 70 | 0.0 | 3.0 | 0.00 | 0.00 | 0.00 | 74 | 1022.9 |
| 20260901071609 | 61 | 35 | 0.0 | 3.0 | 0.00 | 0.00 | 0.00 | 74 | 1023.0 |
| 20260901071407 | 61 | 79 | 0.0 | 3.0 | 0.00 | 0.00 | 0.00 | 74 | 1022.9 |
| 20260901071158 | 61 | 91 | 0.0 | 1.0 | 0.00 | 0.00 | 0.00 | 75 | 1023.0 |
| 20260901070949 | 61 | 64 | 0.0 | 1.0 | 0.00 | 0.00 | 0.00 | 76 | 1023.0 |
| 20260901070742 | 61 | 75 | 0.0 | 1.0 | 0.00 | 0.00 | 0.00 | 77 | 1022.9 |
| 20260901070542 | 60 | 78 | 0.0 | 2.0 | 0.00 | 0.00 | 0.00 | 78 | 1022.9 |
| 20260901070018 | 59 | 121 | 1.0 | 4.0 | 0.00 | 0.00 | 0.00 | 79 | 1022.9 |
| 20260901065818 | 59 | 120 | 1.0 | 4.0 | 0.00 | 0.00 | 0.00 | 79 | 1022.9 |
| 20260901065614 | 59 | 101 | 1.0 | 4.0 | 0.00 | 0.00 | 0.00 | 79 | 1022.9 |
| 20260901065415 | 59 | 120 | 1.0 | 4.0 | 0.00 | 0.00 | 0.00 | 79 | 1022.8 |
| 20260901065210 | 58 | 114 | 1.0 | 4.0 | 0.00 | 0.00 | 0.00 | 79 | 1022.9 |
| 20260901065008 | 58 | 116 | 2.0 | 4.0 | 0.00 | 0.00 | 0.00 | 80 | 1022.9 |
| 20260901064808 | 58 | 106 | 2.0 | 4.0 | 0.00 | 0.00 | 0.00 | 79 | 1022.9 |
| 20260901064602 | 58 | 129 | 2.0 | 4.0 | 0.00 | 0.00 | 0.00 | 80 | 1022.8 |
| 20260901064357 | 58 | 122 | 2.0 | 4.0 | 0.00 | 0.00 | 0.00 | 79 | 1022.8 |
| 20260901064157 | 58 | 128 | 2.0 | 4.0 | 0.00 | 0.00 | 0.00 | 81 | 1022.9 |
| 20260901063952 | 58 | 121 | 2.0 | 6.0 | 0.00 | 0.00 | 0.00 | 81 | 1022.8 |
| 20260901063749 | 57 | 82 | 2.0 | 6.0 | 0.00 | 0.00 | 0.00 | 80 | 1022.8 |
| 20260901063226 | 57 | 116 | 3.0 | 6.0 | 0.00 | 0.00 | 0.00 | 81 | 1022.9 |
| 20260901063021 | 57 | 98 | 4.0 | 6.0 | 0.00 | 0.00 | 0.00 | 81 | 1022.8 |
| 20260901062821 | 57 | 119 | 4.0 | 6.0 | 0.00 | 0.00 | 0.00 | 81 | 1022.8 |
| 20260901062613 | 57 | 111 | 4.0 | 6.0 | 0.00 | 0.00 | 0.00 | 81 | 1022.8 |
| 20260901062412 | 57 | 116 | 4.0 | 6.0 | 0.00 | 0.00 | 0.00 | 81 | 1022.8 |
| 20260901062202 | 57 | 122 | 4.0 | 6.0 | 0.00 | 0.00 | 0.00 | 81 | 1022.8 |
| 20260901062001 | 57 | 116 | 4.0 | 6.0 | 0.00 | 0.00 | 0.00 | 81 | 1022.9 |
| 20260901061800 | 57 | 125 | 4.0 | 6.0 | 0.00 | 0.00 | 0.00 | 81 | 1022.8 |
| 20260901061559 | 57 | 109 | 3.0 | 6.0 | 0.00 | 0.00 | 0.00 | 80 | 1022.8 |
| 20260901061400 | 57 | 115 | 3.0 | 6.0 | 0.00 | 0.00 | 0.00 | 80 | 1022.8 |
| 20260901061152 | 57 | 85 | 3.0 | 6.0 | 0.00 | 0.00 | 0.00 | 80 | 1022.8 |
| 20260901060629 | 56 | 94 | 3.0 | 6.0 | 0.00 | 0.00 | 0.00 | 81 | 1022.8 |
| 20260901060426 | 56 | 112 | 3.0 | 6.0 | 0.00 | 0.00 | 0.00 | 81 | 1022.6 |
| 20260901060219 | 56 | 128 | 4.0 | 6.0 | 0.00 | 0.00 | 0.00 | 82 | 1022.6 |
| 20260901060010 | 56 | 61 | 4.0 | 6.0 | 0.00 | 0.00 | 0.00 | 82 | 1022.7 |
| 20260901055803 | 56 | 94 | 3.0 | 6.0 | 0.00 | 0.00 | 0.00 | 82 | 1022.6 |
| 20260901055600 | 56 | 124 | 3.0 | 6.0 | 0.00 | 0.00 | 0.00 | 83 | 1022.6 |
| 20260901055352 | 55 | 111 | 3.0 | 6.0 | 0.00 | 0.00 | 0.00 | 82 | 1022.7 |
| 20260901055152 | 55 | 115 | 3.0 | 6.0 | 0.00 | 0.00 | 0.00 | 82 | 1022.7 |
| 20260901054620 | 55 | 114 | 3.0 | 6.0 | 0.00 | 0.00 | 0.00 | 83 | 1022.8 |
| 20260901054413 | 55 | 117 | 4.0 | 8.0 | 0.00 | 0.00 | 0.00 | 83 | 1022.8 |
| 20260901054206 | 55 | 120 | 4.0 | 8.0 | 0.00 | 0.00 | 0.00 | 83 | 1022.8 |
| 20260901053645 | 55 | 124 | 4.0 | 8.0 | 0.00 | 0.00 | 0.00 | 83 | 1022.8 |
| 20260901053443 | 54 | 122 | 5.0 | 8.0 | 0.00 | 0.00 | 0.00 | 83 | 1022.6 |
| 20260901053241 | 54 | 117 | 5.0 | 8.0 | 0.00 | 0.00 | 0.00 | 83 | 1022.7 |
| 20260901052723 | 54 | 105 | 4.0 | 8.0 | 0.00 | 0.00 | 0.00 | 83 | 1022.8 |
| 20260901052156 | 54 | 136 | 4.0 | 7.0 | 0.00 | 0.00 | 0.00 | 83 | 1022.7 |
| 20260901051625 | 54 | 120 | 4.0 | 6.0 | 0.00 | 0.00 | 0.00 | 84 | 1022.8 |
| 20260901051415 | 54 | 98 | 4.0 | 7.0 | 0.00 | 0.00 | 0.00 | 84 | 1022.7 |
| 20260901051206 | 53 | 108 | 4.0 | 7.0 | 0.00 | 0.00 | 0.00 | 85 | 1022.8 |
| 20260901050638 | 53 | 117 | 4.0 | 7.0 | 0.00 | 0.00 | 0.00 | 85 | 1022.8 |
| 20260901050429 | 53 | 91 | 4.0 | 7.0 | 0.00 | 0.00 | 0.00 | 85 | 1022.8 |
| 20260901050219 | 53 | 128 | 4.0 | 7.0 | 0.00 | 0.00 | 0.00 | 85 | 1022.8 |
| 20260901050011 | 53 | 130 | 4.0 | 7.0 | 0.00 | 0.00 | 0.00 | 85 | 1022.8 |
| 20260901045800 | 53 | 127 | 4.0 | 7.0 | 0.00 | 0.00 | 0.00 | 85 | 1022.8 |
| 20260901045550 | 53 | 87 | 4.0 | 7.0 | 0.00 | 0.00 | 0.00 | 85 | 1022.8 |
| 20260901045351 | 53 | 128 | 4.0 | 7.0 | 0.00 | 0.00 | 0.00 | 84 | 1022.7 |
| 20260901045144 | 53 | 100 | 4.0 | 7.0 | 0.00 | 0.00 | 0.00 | 84 | 1022.8 |
| 20260901044935 | 53 | 110 | 4.0 | 7.0 | 0.00 | 0.00 | 0.00 | 84 | 1022.8 |
| 20260901044400 | 54 | 110 | 4.0 | 7.0 | 0.00 | 0.00 | 0.00 | 84 | 1022.8 |
| 20260901044155 | 54 | 131 | 4.0 | 7.0 | 0.00 | 0.00 | 0.00 | 84 | 1022.9 |
| 20260901043949 | 54 | 117 | 4.0 | 7.0 | 0.00 | 0.00 | 0.00 | 84 | 1022.9 |
| 20260901043748 | 54 | 98 | 4.0 | 7.0 | 0.00 | 0.00 | 0.00 | 84 | 1022.8 |
| 20260901043542 | 54 | 126 | 4.0 | 7.0 | 0.00 | 0.00 | 0.00 | 83 | 1022.8 |
| 20260901043333 | 54 | 134 | 4.0 | 6.0 | 0.00 | 0.00 | 0.00 | 83 | 1022.8 |
| 20260901042812 | 54 | 92 | 3.0 | 6.0 | 0.00 | 0.00 | 0.00 | 83 | 1022.6 |
| 20260901042241 | 54 | 112 | 3.0 | 5.0 | 0.00 | 0.00 | 0.00 | 82 | 1022.7 |
| 20260901042037 | 54 | 124 | 3.0 | 5.0 | 0.00 | 0.00 | 0.00 | 82 | 1022.8 |
| 20260901041517 | 54 | 91 | 2.0 | 5.0 | 0.00 | 0.00 | 0.00 | 83 | 1022.6 |
| 20260901041310 | 54 | 117 | 2.0 | 4.0 | 0.00 | 0.00 | 0.00 | 83 | 1022.7 |
| 20260901041102 | 54 | 126 | 2.0 | 4.0 | 0.00 | 0.00 | 0.00 | 82 | 1022.7 |
| 20260901040858 | 54 | 111 | 2.0 | 4.0 | 0.00 | 0.00 | 0.00 | 82 | 1022.7 |
| 20260901040650 | 55 | 123 | 2.0 | 4.0 | 0.00 | 0.00 | 0.00 | 82 | 1022.6 |
| 20260901040449 | 55 | 117 | 2.0 | 4.0 | 0.00 | 0.00 | 0.00 | 82 | 1022.7 |
| 20260901040243 | 55 | 122 | 2.0 | 4.0 | 0.00 | 0.00 | 0.00 | 82 | 1022.7 |
| 20260901040036 | 55 | 131 | 2.0 | 4.0 | 0.00 | 0.00 | 0.00 | 82 | 1022.6 |
| 20260901035830 | 55 | 86 | 2.0 | 4.0 | 0.00 | 0.00 | 0.00 | 82 | 1022.7 |
| 20260901035623 | 55 | 128 | 2.0 | 4.0 | 0.00 | 0.00 | 0.00 | 82 | 1022.5 |
| 20260901035052 | 54 | 122 | 1.0 | 4.0 | 0.00 | 0.00 | 0.00 | 82 | 1022.6 |
| 20260901034847 | 54 | 113 | 1.0 | 4.0 | 0.00 | 0.00 | 0.00 | 82 | 1022.6 |
| 20260901034314 | 55 | 92 | 0.0 | 3.0 | 0.00 | 0.00 | 0.00 | 82 | 1022.7 |
| 20260901033751 | 55 | 105 | 0.0 | 3.0 | 0.00 | 0.00 | 0.00 | 81 | 1022.6 |
| 20260901033542 | 55 | 111 | 0.0 | 2.0 | 0.00 | 0.00 | 0.00 | 80 | 1022.6 |
| 20260901033334 | 55 | 94 | 0.0 | 2.0 | 0.00 | 0.00 | 0.00 | 80 | 1022.7 |
| 20260901033126 | 56 | 133 | 0.0 | 2.0 | 0.00 | 0.00 | 0.00 | 79 | 1022.7 |
| 20260901032918 | 56 | 101 | 0.0 | 2.0 | 0.00 | 0.00 | 0.00 | 78 | 1022.7 |
| 20260901032708 | 56 | 242 | 0.0 | 0.0 | 0.00 | 0.00 | 0.00 | 78 | 1022.6 |
| 20260901032509 | 56 | 242 | 0.0 | 0.0 | 0.00 | 0.00 | 0.00 | 78 | 1022.7 |
| 20260901032307 | 56 | 242 | 0.0 | 0.0 | 0.00 | 0.00 | 0.00 | 78 | 1022.8 |
| 20260901032059 | 56 | 242 | 0.0 | 0.0 | 0.00 | 0.00 | 0.00 | 78 | 1022.7 |
| 20260901031849 | 56 | 242 | 0.0 | 0.0 | 0.00 | 0.00 | 0.00 | 78 | 1022.7 |
| 20260901031641 | 56 | 242 | 0.0 | 1.0 | 0.00 | 0.00 | 0.00 | 79 | 1022.7 |
| 20260901031440 | 56 | 136 | 0.0 | 0.0 | 0.00 | 0.00 | 0.00 | 79 | 1022.7 |
| 20260901031239 | 56 | 136 | 0.0 | 0.0 | 0.00 | 0.00 | 0.00 | 79 | 1022.6 |
| 20260901030711 | 56 | 136 | 0.0 | 0.0 | 0.00 | 0.00 | 0.00 | 78 | 1022.7 |
| 20260901030511 | 56 | 113 | 0.0 | 1.0 | 0.00 | 0.00 | 0.00 | 78 | 1022.7 |
| 20260901030308 | 56 | 117 | 0.0 | 1.0 | 0.00 | 0.00 | 0.00 | 78 | 1022.8 |
| 20260901030108 | 57 | 130 | 0.0 | 1.0 | 0.00 | 0.00 | 0.00 | 77 | 1022.8 |
| 20260901025903 | 57 | 99 | 0.0 | 1.0 | 0.00 | 0.00 | 0.00 | 77 | 1022.8 |
| 20260901025656 | 57 | 165 | 0.0 | 0.0 | 0.00 | 0.00 | 0.00 | 76 | 1022.8 |
| 20260901025448 | 57 | 217 | 0.0 | 0.0 | 0.00 | 0.00 | 0.00 | 76 | 1022.7 |
| 20260901025244 | 57 | 217 | 0.0 | 0.0 | 0.00 | 0.00 | 0.00 | 76 | 1022.7 |
| 20260901024722 | 57 | 217 | 0.0 | 0.0 | 0.00 | 0.00 | 0.00 | 76 | 1022.7 |
| 20260901024520 | 57 | 217 | 0.0 | 0.0 | 0.00 | 0.00 | 0.00 | 76 | 1022.7 |
| 20260901024310 | 57 | 217 | 0.0 | 0.0 | 0.00 | 0.00 | 0.00 | 77 | 1022.7 |
| 20260901024107 | 57 | 217 | 0.0 | 0.0 | 0.00 | 0.00 | 0.00 | 77 | 1022.7 |
| 20260901023906 | 57 | 217 | 0.0 | 0.0 | 0.00 | 0.00 | 0.00 | 77 | 1022.7 |
| 20260901023707 | 57 | 219 | 0.0 | 0.0 | 0.00 | 0.00 | 0.00 | 77 | 1022.6 |
| 20260901022457 | 56 | 105 | 1.0 | 3.0 | 0.00 | 0.00 | 0.00 | 78 | 1022.8 |
| 20260901022254 | 56 | 114 | 1.0 | 3.0 | 0.00 | 0.00 | 0.00 | 78 | 1022.8 |
| 20260901022046 | 56 | 106 | 1.0 | 5.0 | 0.00 | 0.00 | 0.00 | 79 | 1022.8 |
| 20260901021838 | 56 | 105 | 1.0 | 5.0 | 0.00 | 0.00 | 0.00 | 79 | 1022.7 |
| 20260901021631 | 56 | 113 | 1.0 | 5.0 | 0.00 | 0.00 | 0.00 | 79 | 1022.7 |
| 20260901021424 | 56 | 84 | 2.0 | 5.0 | 0.00 | 0.00 | 0.00 | 79 | 1022.6 |
| 20260901021222 | 56 | 108 | 2.0 | 5.0 | 0.00 | 0.00 | 0.00 | 79 | 1022.7 |
| 20260901021017 | 56 | 72 | 2.0 | 5.0 | 0.00 | 0.00 | 0.00 | 79 | 1022.7 |
| 20260901020810 | 56 | 113 | 2.0 | 5.0 | 0.00 | 0.00 | 0.00 | 80 | 1022.8 |
| 20260901020247 | 56 | 116 | 1.0 | 5.0 | 0.00 | 0.00 | 0.00 | 79 | 1022.7 |
| 20260901020040 | 56 | 120 | 0.0 | 3.0 | 0.00 | 0.00 | 0.00 | 79 | 1022.6 |
| 20260901015831 | 56 | 115 | 0.0 | 3.0 | 0.00 | 0.00 | 0.00 | 78 | 1022.8 |
| 20260901015624 | 56 | 123 | 0.0 | 2.0 | 0.00 | 0.00 | 0.00 | 78 | 1022.7 |
| 20260901015419 | 57 | 129 | 0.0 | 2.0 | 0.00 | 0.00 | 0.00 | 78 | 1022.8 |
| 20260901015217 | 56 | 197 | 0.0 | 0.0 | 0.00 | 0.00 | 0.00 | 77 | 1022.6 |
| 20260901015016 | 56 | 196 | 0.0 | 0.0 | 0.00 | 0.00 | 0.00 | 78 | 1022.7 |
| 20260901014138 | 57 | 197 | 0.0 | 0.0 | 0.00 | 0.00 | 0.00 | 78 | 1022.8 |
| 20260901013931 | 57 | 196 | 0.0 | 0.0 | 0.00 | 0.00 | 0.00 | 77 | 1022.8 |
| 20260901013720 | 57 | 196 | 0.0 | 0.0 | 0.00 | 0.00 | 0.00 | 78 | 1022.9 |
| 20260901013519 | 57 | 196 | 0.0 | 0.0 | 0.00 | 0.00 | 0.00 | 78 | 1022.9 |
| 20260901013318 | 57 | 204 | 0.0 | 0.0 | 0.00 | 0.00 | 0.00 | 78 | 1022.9 |
| 20260901013109 | 57 | 195 | 0.0 | 0.0 | 0.00 | 0.00 | 0.00 | 78 | 1022.9 |
| 20260901012909 | 57 | 195 | 0.0 | 0.0 | 0.00 | 0.00 | 0.00 | 78 | 1023.0 |
| 20260901012701 | 57 | 195 | 0.0 | 0.0 | 0.00 | 0.00 | 0.00 | 78 | 1022.9 |
| 20260901012456 | 57 | 233 | 0.0 | 0.0 | 0.00 | 0.00 | 0.00 | 78 | 1022.9 |
| 20260901012246 | 57 | 112 | 0.0 | 0.0 | 0.00 | 0.00 | 0.00 | 78 | 1022.9 |
| 20260901012047 | 57 | 102 | 0.0 | 3.0 | 0.00 | 0.00 | 0.00 | 78 | 1022.9 |
| 20260901011521 | 57 | 120 | 0.0 | 3.0 | 0.00 | 0.00 | 0.00 | 77 | 1022.9 |
| 20260901011319 | 57 | 77 | 0.0 | 3.0 | 0.00 | 0.00 | 0.00 | 77 | 1022.9 |
| 20260901011118 | 57 | 140 | 0.0 | 1.0 | 0.00 | 0.00 | 0.00 | 77 | 1022.9 |
| 20260901010913 | 57 | 101 | 0.0 | 1.0 | 0.00 | 0.00 | 0.00 | 77 | 1022.9 |
| 20260901010709 | 57 | 104 | 0.0 | 1.0 | 0.00 | 0.00 | 0.00 | 77 | 1022.8 |
| 20260901010458 | 58 | 236 | 0.0 | 0.0 | 0.00 | 0.00 | 0.00 | 76 | 1022.9 |
| 20260901010255 | 58 | 236 | 0.0 | 0.0 | 0.00 | 0.00 | 0.00 | 77 | 1022.8 |
| 20260901010053 | 58 | 248 | 0.0 | 2.0 | 0.00 | 0.00 | 0.00 | 77 | 1022.8 |
| 20260901005529 | 58 | 239 | 1.0 | 4.0 | 0.00 | 0.00 | 0.00 | 77 | 1022.8 |
| 20260901005324 | 58 | 239 | 1.0 | 4.0 | 0.00 | 0.00 | 0.00 | 77 | 1022.8 |
| 20260901005126 | 58 | 240 | 1.0 | 4.0 | 0.00 | 0.00 | 0.00 | 77 | 1022.7 |
| 20260901004926 | 58 | 241 | 1.0 | 4.0 | 0.00 | 0.00 | 0.00 | 77 | 1022.8 |
| 20260901004720 | 58 | 236 | 1.0 | 4.0 | 0.00 | 0.00 | 0.00 | 77 | 1022.8 |
| 20260901004519 | 58 | 234 | 0.0 | 4.0 | 0.00 | 0.00 | 0.00 | 77 | 1022.8 |
| 20260901004309 | 58 | 253 | 0.0 | 4.0 | 0.00 | 0.00 | 0.00 | 77 | 1022.8 |
| 20260901004106 | 58 | 239 | 0.0 | 4.0 | 0.00 | 0.00 | 0.00 | 77 | 1022.9 |
| 20260901003901 | 58 | 221 | 1.0 | 4.0 | 0.00 | 0.00 | 0.00 | 77 | 1022.9 |
| 20260901003702 | 58 | 248 | 1.0 | 4.0 | 0.00 | 0.00 | 0.00 | 77 | 1022.9 |
| 20260901003148 | 58 | 231 | 2.0 | 4.0 | 0.00 | 0.00 | 0.00 | 76 | 1022.9 |
| 20260901002944 | 58 | 230 | 2.0 | 4.0 | 0.00 | 0.00 | 0.00 | 76 | 1022.8 |
| 20260901002743 | 58 | 232 | 2.0 | 4.0 | 0.00 | 0.00 | 0.00 | 76 | 1022.9 |
| 20260901002544 | 58 | 239 | 2.0 | 4.0 | 0.00 | 0.00 | 0.00 | 76 | 1022.9 |
| 20260901002338 | 58 | 240 | 2.0 | 4.0 | 0.00 | 0.00 | 0.00 | 76 | 1022.8 |
| 20260901002135 | 58 | 237 | 2.0 | 4.0 | 0.00 | 0.00 | 0.00 | 76 | 1022.9 |
| 20260901001925 | 58 | 240 | 2.0 | 4.0 | 0.00 | 0.00 | 0.00 | 75 | 1022.9 |
| 20260901001716 | 58 | 239 | 2.0 | 3.0 | 0.00 | 0.00 | 0.00 | 75 | 1022.9 |
| 20260901001150 | 59 | 238 | 1.0 | 3.0 | 0.00 | 0.00 | 0.00 | 75 | 1022.9 |
| 20260901000951 | 59 | 238 | 1.0 | 3.0 | 0.00 | 0.00 | 0.00 | 75 | 1022.9 |
| 20260901000751 | 59 | 234 | 1.0 | 3.0 | 0.00 | 0.00 | 0.00 | 75 | 1022.9 |
| 20260901000545 | 59 | 236 | 1.0 | 3.0 | 0.00 | 0.00 | 0.00 | 75 | 1022.9 |
| 20260901000017 | 59 | 235 | 1.0 | 3.0 | 0.00 | 0.00 | 0.00 | 74 | 1023.0 |
| 20260831235813 | 59 | 237 | 1.0 | 3.0 | 0.00 | 0.00 | 0.00 | 74 | 1022.9 |
| 20260831235612 | 59 | 243 | 1.0 | 3.0 | 0.00 | 0.00 | 0.00 | 74 | 1022.9 |
| 20260831235406 | 59 | 237 | 1.0 | 3.0 | 0.00 | 0.00 | 0.00 | 74 | 1022.9 |
| 20260831235159 | 59 | 240 | 1.0 | 3.0 | 0.00 | 0.00 | 0.00 | 74 | 1023.0 |
| 20260831234950 | 59 | 245 | 0.0 | 2.0 | 0.00 | 0.00 | 0.00 | 74 | 1022.9 |
| 20260831234742 | 59 | 236 | 0.0 | 2.0 | 0.00 | 0.00 | 0.00 | 74 | 1022.9 |
| 20260831234542 | 59 | 236 | 0.0 | 2.0 | 0.00 | 0.00 | 0.00 | 74 | 1022.9 |
| 20260831234333 | 59 | 240 | 0.0 | 2.0 | 0.00 | 0.00 | 0.00 | 73 | 1022.8 |
| 20260831233814 | 59 | 231 | 0.0 | 2.0 | 0.00 | 0.00 | 0.00 | 73 | 1023.0 |
| 20260831233616 | 59 | 236 | 0.0 | 2.0 | 0.00 | 0.00 | 0.00 | 73 | 1022.9 |
| 20260831233412 | 59 | 239 | 0.0 | 2.0 | 0.00 | 0.00 | 0.00 | 73 | 1023.0 |
| 20260831233208 | 59 | 239 | 0.0 | 2.0 | 0.00 | 0.00 | 0.00 | 73 | 1023.0 |
| 20260831232640 | 59 | 239 | 0.0 | 2.0 | 0.00 | 0.00 | 0.00 | 73 | 1023.0 |
| 20260831232437 | 59 | 242 | 0.0 | 2.0 | 0.00 | 0.00 | 0.00 | 73 | 1023.0 |
| 20260831232233 | 59 | 239 | 0.0 | 1.0 | 0.00 | 0.00 | 0.00 | 73 | 1023.1 |
| 20260831232026 | 59 | 241 | 0.0 | 1.0 | 0.00 | 0.00 | 0.00 | 73 | 1023.1 |
| 20260831231822 | 59 | 233 | 0.0 | 1.0 | 0.00 | 0.01 | 0.00 | 73 | 1023.0 |
| 20260831231304 | 59 | 236 | 0.0 | 1.0 | 0.00 | 0.05 | 0.00 | 73 | 1023.0 |
| 20260831231102 | 59 | 238 | 0.0 | 0.0 | 0.00 | 0.07 | 0.00 | 73 | 1023.0 |
| 20260831230901 | 59 | 240 | 0.0 | 0.0 | 0.00 | 0.09 | 0.00 | 73 | 1023.2 |
| 20260831230656 | 59 | 236 | 0.0 | 0.0 | 0.00 | 0.10 | 0.00 | 73 | 1023.1 |
| 20260831230451 | 59 | 238 | 0.0 | 0.0 | 0.00 | 0.10 | 0.00 | 73 | 1023.2 |
| 20260831230240 | 59 | 238 | 0.0 | 2.0 | 0.00 | 0.11 | 0.00 | 73 | 1023.1 |
| 20260831225721 | 59 | 238 | 0.0 | 2.0 | 0.00 | 0.13 | 0.00 | 73 | 1023.2 |
| 20260831225512 | 59 | 233 | 0.0 | 2.0 | 0.00 | 0.13 | 0.00 | 72 | 1023.1 |
| 20260831225312 | 59 | 233 | 0.0 | 2.0 | 0.00 | 0.13 | 0.00 | 72 | 1023.2 |
| 20260831225102 | 59 | 234 | 0.0 | 2.0 | 0.00 | 0.13 | 0.00 | 73 | 1023.1 |
| 20260831224858 | 59 | 236 | 0.0 | 2.0 | 0.00 | 0.13 | 0.00 | 73 | 1023.2 |
| 20260831224656 | 59 | 232 | 0.0 | 2.0 | 0.00 | 0.13 | 0.00 | 73 | 1023.2 |
| 20260831224452 | 59 | 229 | 0.0 | 1.0 | 0.00 | 0.13 | 0.00 | 73 | 1023.2 |
| 20260831224249 | 59 | 241 | 0.0 | 1.0 | 0.00 | 0.13 | 0.00 | 73 | 1023.2 |
| 20260831223043 | 59 | 229 | 0.0 | 0.0 | 0.00 | 0.14 | 0.00 | 73 | 1023.2 |
| 20260831222835 | 59 | 229 | 0.0 | 1.0 | 0.00 | 0.14 | 0.00 | 73 | 1023.2 |
| 20260831222632 | 59 | 229 | 0.0 | 1.0 | 0.00 | 0.16 | 0.00 | 73 | 1023.2 |
| 20260831222431 | 59 | 226 | 0.0 | 1.0 | 0.00 | 0.16 | 0.00 | 74 | 1023.2 |
| 20260831222226 | 59 | 235 | 0.0 | 1.0 | 0.00 | 0.17 | 0.00 | 74 | 1023.2 |
| 20260831222021 | 59 | 232 | 0.0 | 1.0 | 0.00 | 0.17 | 0.00 | 74 | 1023.2 |
| 20260831221820 | 59 | 244 | 0.0 | 1.0 | 0.00 | 0.18 | 0.00 | 75 | 1023.2 |
| 20260831221255 | 59 | 229 | 0.0 | 0.0 | 0.00 | 0.18 | 0.00 | 74 | 1023.2 |
| 20260831220730 | 59 | 229 | 0.0 | 0.0 | 0.00 | 0.18 | 0.00 | 74 | 1023.3 |
| 20260831220524 | 59 | 229 | 0.0 | 0.0 | 0.00 | 0.18 | 0.00 | 74 | 1023.3 |
| 20260831220322 | 60 | 229 | 0.0 | 0.0 | 0.00 | 0.18 | 0.00 | 74 | 1023.2 |
| 20260831215757 | 60 | 229 | 0.0 | 0.0 | 0.00 | 0.18 | 0.18 | 73 | 1023.3 |
| 20260831215226 | 60 | 237 | 0.0 | 1.0 | 0.00 | 0.18 | 0.18 | 73 | 1023.3 |
| 20260831214704 | 60 | 232 | 0.0 | 0.0 | 0.00 | 0.18 | 0.18 | 73 | 1023.3 |
| 20260831214457 | 60 | 232 | 0.0 | 0.0 | 0.00 | 0.18 | 0.18 | 73 | 1023.4 |
| 20260831214247 | 60 | 232 | 0.0 | 1.0 | 0.00 | 0.18 | 0.18 | 73 | 1023.3 |
| 20260831214042 | 60 | 232 | 0.0 | 1.0 | 0.00 | 0.18 | 0.18 | 73 | 1023.3 |
| 20260831213511 | 60 | 238 | 0.0 | 1.0 | 0.00 | 0.18 | 0.18 | 73 | 1023.4 |
| 20260831213301 | 60 | 228 | 0.0 | 0.0 | 0.00 | 0.18 | 0.18 | 73 | 1023.3 |
| 20260831213050 | 60 | 228 | 0.0 | 0.0 | 0.00 | 0.18 | 0.18 | 73 | 1023.3 |
| 20260831212847 | 60 | 228 | 0.0 | 0.0 | 0.00 | 0.18 | 0.18 | 73 | 1023.4 |
| 20260831212645 | 60 | 222 | 0.0 | 0.0 | 0.00 | 0.18 | 0.18 | 73 | 1023.4 |
| 20260831212443 | 60 | 222 | 0.0 | 0.0 | 0.00 | 0.18 | 0.18 | 73 | 1023.3 |
| 20260831212242 | 60 | 222 | 0.0 | 0.0 | 0.00 | 0.18 | 0.18 | 72 | 1023.3 |
| 20260831212033 | 60 | 222 | 0.0 | 0.0 | 0.00 | 0.18 | 0.18 | 72 | 1023.3 |
| 20260831211826 | 60 | 222 | 0.0 | 0.0 | 0.00 | 0.18 | 0.18 | 72 | 1023.3 |
| 20260831211621 | 60 | 222 | 0.0 | 0.0 | 0.00 | 0.18 | 0.18 | 73 | 1023.2 |
| 20260831211421 | 60 | 220 | 0.0 | 0.0 | 0.00 | 0.18 | 0.18 | 72 | 1023.2 |
| 20260831210904 | 60 | 220 | 0.0 | 0.0 | 0.00 | 0.18 | 0.18 | 72 | 1023.2 |
| 20260831210337 | 60 | 220 | 0.0 | 0.0 | 0.00 | 0.18 | 0.18 | 72 | 1023.1 |
| 20260831205817 | 60 | 220 | 0.0 | 0.0 | 0.00 | 0.18 | 0.18 | 72 | 1023.2 |
| 20260831205607 | 60 | 220 | 0.0 | 0.0 | 0.00 | 0.18 | 0.18 | 71 | 1023.2 |
| 20260831205356 | 60 | 220 | 0.0 | 0.0 | 0.00 | 0.18 | 0.18 | 71 | 1023.2 |
| 20260831205156 | 60 | 220 | 0.0 | 0.0 | 0.00 | 0.18 | 0.18 | 71 | 1023.2 |
| 20260831204955 | 60 | 220 | 0.0 | 0.0 | 0.00 | 0.18 | 0.18 | 71 | 1023.2 |
| 20260831204746 | 61 | 220 | 0.0 | 0.0 | 0.00 | 0.18 | 0.18 | 71 | 1023.2 |
| 20260831203906 | 61 | 220 | 0.0 | 0.0 | 0.00 | 0.18 | 0.18 | 71 | 1023.2 |
| 20260831203345 | 61 | 220 | 0.0 | 0.0 | 0.00 | 0.18 | 0.18 | 71 | 1023.2 |
| 20260831203135 | 61 | 220 | 0.0 | 0.0 | 0.00 | 0.18 | 0.18 | 71 | 1023.1 |
| 20260831202933 | 61 | 219 | 0.0 | 0.0 | 0.00 | 0.18 | 0.18 | 70 | 1023.2 |
| 20260831202359 | 61 | 220 | 0.0 | 0.0 | 0.00 | 0.18 | 0.18 | 70 | 1023.1 |
| 20260831202157 | 61 | 220 | 0.0 | 0.0 | 0.00 | 0.18 | 0.18 | 70 | 1023.0 |
| 20260831201952 | 61 | 220 | 0.0 | 0.0 | 0.00 | 0.18 | 0.18 | 70 | 1023.0 |
| 20260831201750 | 61 | 220 | 0.0 | 0.0 | 0.00 | 0.18 | 0.18 | 70 | 1023.1 |
| 20260831201223 | 61 | 220 | 0.0 | 0.0 | 0.00 | 0.18 | 0.18 | 71 | 1023.2 |
| 20260831201021 | 61 | 220 | 0.0 | 0.0 | 0.00 | 0.18 | 0.18 | 71 | 1023.2 |
| 20260831200814 | 61 | 220 | 0.0 | 0.0 | 0.00 | 0.18 | 0.18 | 72 | 1023.0 |
| 20260831200607 | 61 | 220 | 0.0 | 0.0 | 0.00 | 0.18 | 0.18 | 72 | 1023.0 |
| 20260831200408 | 61 | 220 | 0.0 | 0.0 | 0.00 | 0.18 | 0.18 | 72 | 1023.0 |
| 20260831195846 | 61 | 217 | 0.0 | 0.0 | 0.00 | 0.18 | 0.18 | 72 | 1022.9 |
| 20260831195643 | 61 | 217 | 0.0 | 0.0 | 0.00 | 0.18 | 0.18 | 71 | 1022.9 |
| 20260831195442 | 61 | 218 | 0.0 | 0.0 | 0.00 | 0.18 | 0.18 | 71 | 1022.9 |
| 20260831195240 | 61 | 217 | 0.0 | 0.0 | 0.00 | 0.18 | 0.18 | 71 | 1022.8 |
| 20260831195039 | 61 | 217 | 0.0 | 2.0 | 0.00 | 0.18 | 0.18 | 70 | 1022.9 |
| 20260831194838 | 61 | 234 | 0.0 | 2.0 | 0.00 | 0.18 | 0.18 | 70 | 1022.8 |
| 20260831193944 | 61 | 235 | 0.0 | 3.0 | 0.00 | 0.18 | 0.18 | 71 | 1022.6 |
| 20260831193417 | 61 | 246 | 0.0 | 3.0 | 0.00 | 0.18 | 0.18 | 71 | 1022.6 |
| 20260831193208 | 61 | 242 | 0.0 | 3.0 | 0.00 | 0.18 | 0.18 | 71 | 1022.6 |
| 20260831193006 | 61 | 249 | 0.0 | 3.0 | 0.00 | 0.18 | 0.18 | 70 | 1022.5 |
| 20260831192805 | 61 | 239 | 0.0 | 3.0 | 0.00 | 0.18 | 0.18 | 70 | 1022.4 |
| 20260831192600 | 61 | 264 | 0.0 | 3.0 | 0.00 | 0.18 | 0.18 | 70 | 1022.5 |
| 20260831192042 | 62 | 235 | 0.0 | 1.0 | 0.00 | 0.18 | 0.18 | 70 | 1022.5 |
| 20260831191837 | 62 | 238 | 0.0 | 0.0 | 0.00 | 0.18 | 0.18 | 69 | 1022.5 |
| 20260831191631 | 62 | 238 | 0.0 | 2.0 | 0.00 | 0.18 | 0.18 | 69 | 1022.6 |
| 20260831191426 | 62 | 249 | 0.0 | 2.0 | 0.00 | 0.18 | 0.18 | 69 | 1022.5 |
| 20260831191227 | 62 | 235 | 0.0 | 1.0 | 0.00 | 0.18 | 0.18 | 69 | 1022.5 |
| 20260831191021 | 62 | 233 | 0.0 | 1.0 | 0.00 | 0.18 | 0.18 | 69 | 1022.5 |
| 20260831190822 | 62 | 230 | 0.0 | 1.0 | 0.00 | 0.18 | 0.18 | 69 | 1022.6 |
| 20260831190614 | 62 | 229 | 0.0 | 1.0 | 0.00 | 0.18 | 0.18 | 69 | 1022.6 |
| 20260831190407 | 62 | 243 | 0.0 | 1.0 | 0.00 | 0.18 | 0.18 | 69 | 1022.5 |
| 20260831190206 | 62 | 243 | 0.0 | 1.0 | 0.00 | 0.18 | 0.18 | 69 | 1022.5 |
| 20260831185957 | 62 | 243 | 0.0 | 1.0 | 0.00 | 0.18 | 0.18 | 69 | 1022.6 |
| 20260831185431 | 62 | 245 | 0.0 | 1.0 | 0.00 | 0.18 | 0.18 | 68 | 1022.5 |
| 20260831185226 | 62 | 288 | 0.0 | 1.0 | 0.00 | 0.18 | 0.18 | 69 | 1022.4 |
| 20260831185020 | 62 | 248 | 0.0 | 1.0 | 0.00 | 0.18 | 0.18 | 69 | 1022.4 |
| 20260831184813 | 62 | 247 | 0.0 | 1.0 | 0.00 | 0.18 | 0.18 | 69 | 1022.4 |
| 20260831184608 | 62 | 248 | 0.0 | 1.0 | 0.00 | 0.18 | 0.18 | 68 | 1022.3 |
| 20260831184409 | 62 | 248 | 0.0 | 1.0 | 0.00 | 0.18 | 0.18 | 68 | 1022.3 |
| 20260831184202 | 62 | 246 | 0.0 | 1.0 | 0.00 | 0.18 | 0.18 | 68 | 1022.2 |
| 20260831183644 | 62 | 240 | 0.0 | 2.0 | 0.00 | 0.18 | 0.18 | 67 | 1022.1 |
| 20260831183435 | 62 | 237 | 0.0 | 2.0 | 0.00 | 0.18 | 0.18 | 67 | 1022.2 |
| 20260831183231 | 63 | 248 | 0.0 | 2.0 | 0.00 | 0.18 | 0.18 | 67 | 1022.1 |
| 20260831183025 | 63 | 253 | 0.0 | 3.0 | 0.00 | 0.18 | 0.18 | 67 | 1022.1 |
| 20260831182822 | 63 | 250 | 0.0 | 3.0 | 0.00 | 0.18 | 0.18 | 67 | 1022.0 |
| 20260831182306 | 63 | 240 | 0.0 | 3.0 | 0.00 | 0.18 | 0.18 | 66 | 1021.9 |
| 20260831182104 | 63 | 233 | 0.0 | 3.0 | 0.00 | 0.18 | 0.18 | 66 | 1021.9 |
| 20260831181901 | 63 | 246 | 0.0 | 3.0 | 0.00 | 0.18 | 0.18 | 66 | 1021.9 |
| 20260831181652 | 63 | 249 | 0.0 | 3.0 | 0.00 | 0.18 | 0.18 | 67 | 1021.9 |
| 20260831181447 | 63 | 259 | 0.0 | 3.0 | 0.00 | 0.18 | 0.18 | 66 | 1021.8 |
| 20260831181240 | 63 | 234 | 0.0 | 3.0 | 0.00 | 0.18 | 0.18 | 66 | 1021.9 |
| 20260831181036 | 63 | 243 | 0.0 | 2.0 | 0.00 | 0.18 | 0.18 | 66 | 1021.9 |
| 20260831180835 | 64 | 229 | 0.0 | 2.0 | 0.00 | 0.18 | 0.18 | 66 | 1021.8 |
| 20260831180626 | 64 | 235 | 0.0 | 2.0 | 0.00 | 0.18 | 0.18 | 66 | 1021.8 |
| 20260831180417 | 64 | 245 | 0.0 | 3.0 | 0.00 | 0.18 | 0.18 | 66 | 1021.8 |
| 20260831180215 | 64 | 234 | 0.0 | 3.0 | 0.00 | 0.18 | 0.18 | 66 | 1021.7 |
| 20260831180008 | 64 | 243 | 0.0 | 3.0 | 0.00 | 0.18 | 0.18 | 66 | 1021.7 |
| 20260831175807 | 64 | 242 | 0.0 | 3.0 | 0.00 | 0.18 | 0.18 | 66 | 1021.7 |
| 20260831175602 | 65 | 274 | 0.0 | 3.0 | 0.00 | 0.18 | 0.18 | 65 | 1021.7 |
| 20260831175352 | 65 | 294 | 0.0 | 5.0 | 0.00 | 0.18 | 0.18 | 64 | 1021.7 |
| 20260831175145 | 65 | 243 | 1.0 | 5.0 | 0.00 | 0.18 | 0.18 | 64 | 1021.7 |
| 20260831174943 | 65 | 220 | 1.0 | 5.0 | 0.00 | 0.18 | 0.18 | 65 | 1021.6 |
| 20260831174743 | 65 | 260 | 1.0 | 5.0 | 0.00 | 0.18 | 0.18 | 64 | 1021.5 |
| 20260831173901 | 66 | 266 | 1.0 | 6.0 | 0.00 | 0.18 | 0.18 | 65 | 1021.5 |
| 20260831173657 | 66 | 267 | 2.0 | 6.0 | 0.00 | 0.18 | 0.18 | 65 | 1021.6 |
| 20260831173447 | 66 | 241 | 2.0 | 6.0 | 0.00 | 0.18 | 0.18 | 64 | 1021.5 |
| 20260831172918 | 66 | 299 | 2.0 | 9.0 | 0.00 | 0.18 | 0.18 | 63 | 1021.4 |
| 20260831172715 | 66 | 280 | 2.0 | 9.0 | 0.00 | 0.18 | 0.18 | 63 | 1021.3 |
| 20260831172515 | 66 | 283 | 2.0 | 9.0 | 0.00 | 0.18 | 0.18 | 64 | 1021.4 |
| 20260831172307 | 66 | 264 | 3.0 | 9.0 | 0.00 | 0.18 | 0.18 | 63 | 1021.3 |
| 20260831172106 | 67 | 286 | 3.0 | 9.0 | 0.00 | 0.18 | 0.18 | 63 | 1021.3 |
| 20260831171547 | 67 | 287 | 3.0 | 9.0 | 0.00 | 0.18 | 0.18 | 63 | 1021.4 |
| 20260831171339 | 67 | 276 | 3.0 | 9.0 | 0.00 | 0.18 | 0.18 | 63 | 1021.3 |
| 20260831171134 | 67 | 279 | 3.0 | 9.0 | 0.00 | 0.18 | 0.18 | 63 | 1021.3 |
| 20260831170609 | 67 | 272 | 2.0 | 9.0 | 0.00 | 0.18 | 0.18 | 63 | 1021.3 |
| 20260831165730 | 68 | 281 | 1.0 | 8.0 | 0.00 | 0.18 | 0.18 | 62 | 1021.1 |
| 20260831165527 | 68 | 266 | 1.0 | 8.0 | 0.00 | 0.18 | 0.18 | 63 | 1021.1 |
| 20260831165324 | 68 | 272 | 1.0 | 8.0 | 0.00 | 0.18 | 0.18 | 62 | 1021.1 |
| 20260831164807 | 68 | 270 | 2.0 | 8.0 | 0.00 | 0.18 | 0.18 | 61 | 1021.2 |
| 20260831164608 | 68 | 295 | 2.0 | 11.0 | 0.00 | 0.18 | 0.18 | 59 | 1021.2 |
| 20260831164404 | 68 | 253 | 3.0 | 11.0 | 0.00 | 0.18 | 0.18 | 61 | 1021.2 |
| 20260831164201 | 68 | 289 | 3.0 | 11.0 | 0.00 | 0.18 | 0.18 | 61 | 1021.2 |
| 20260831163631 | 69 | 286 | 3.0 | 11.0 | 0.00 | 0.18 | 0.18 | 59 | 1021.1 |
| 20260831163103 | 69 | 267 | 3.0 | 11.0 | 0.00 | 0.18 | 0.18 | 57 | 1021.0 |
| 20260831162853 | 69 | 212 | 3.0 | 11.0 | 0.00 | 0.18 | 0.18 | 57 | 1020.9 |
| 20260831162018 | 70 | 255 | 3.0 | 12.0 | 0.00 | 0.18 | 0.18 | 57 | 1020.9 |
| 20260831161808 | 70 | 251 | 4.0 | 12.0 | 0.00 | 0.18 | 0.18 | 57 | 1020.9 |
| 20260831161559 | 69 | 247 | 4.0 | 13.0 | 0.00 | 0.18 | 0.18 | 57 | 1020.8 |
| 20260831161350 | 69 | 293 | 5.0 | 13.0 | 0.00 | 0.18 | 0.18 | 56 | 1020.8 |
| 20260831161151 | 70 | 301 | 5.0 | 13.0 | 0.00 | 0.18 | 0.18 | 57 | 1020.7 |
| 20260831160942 | 70 | 300 | 5.0 | 13.0 | 0.00 | 0.18 | 0.18 | 55 | 1020.8 |
| 20260831160413 | 70 | 233 | 5.0 | 13.0 | 0.00 | 0.18 | 0.18 | 54 | 1020.7 |
| 20260831160212 | 70 | 271 | 4.0 | 13.0 | 0.00 | 0.18 | 0.18 | 54 | 1020.8 |
| 20260831160010 | 70 | 285 | 4.0 | 13.0 | 0.00 | 0.18 | 0.18 | 54 | 1020.7 |
| 20260831155805 | 70 | 295 | 3.0 | 13.0 | 0.00 | 0.18 | 0.18 | 54 | 1020.8 |
| 20260831155243 | 70 | 293 | 3.0 | 11.0 | 0.00 | 0.18 | 0.18 | 54 | 1020.7 |
| 20260831155033 | 70 | 264 | 3.0 | 11.0 | 0.00 | 0.18 | 0.18 | 53 | 1020.6 |
| 20260831154828 | 70 | 262 | 3.0 | 11.0 | 0.00 | 0.18 | 0.18 | 53 | 1020.6 |
| 20260831154627 | 70 | 251 | 4.0 | 11.0 | 0.00 | 0.18 | 0.18 | 52 | 1020.7 |
| 20260831154107 | 70 | 263 | 4.0 | 11.0 | 0.00 | 0.18 | 0.18 | 51 | 1020.7 |
| 20260831153900 | 70 | 288 | 4.0 | 11.0 | 0.00 | 0.18 | 0.18 | 49 | 1020.6 |
| 20260831153659 | 70 | 297 | 4.0 | 11.0 | 0.00 | 0.18 | 0.18 | 51 | 1020.7 |
| 20260831153454 | 70 | 243 | 4.0 | 12.0 | 0.00 | 0.18 | 0.18 | 49 | 1020.6 |
| 20260831153251 | 70 | 261 | 5.0 | 12.0 | 0.00 | 0.18 | 0.18 | 50 | 1020.7 |
| 20260831153050 | 70 | 285 | 5.0 | 12.0 | 0.00 | 0.18 | 0.18 | 49 | 1020.6 |
| 20260831152842 | 70 | 255 | 5.0 | 12.0 | 0.00 | 0.18 | 0.18 | 49 | 1020.8 |
| 20260831152642 | 70 | 283 | 5.0 | 12.0 | 0.00 | 0.18 | 0.18 | 46 | 1020.6 |
| 20260831152432 | 70 | 221 | 5.0 | 13.0 | 0.00 | 0.18 | 0.18 | 49 | 1020.8 |
| 20260831152230 | 71 | 243 | 4.0 | 13.0 | 0.00 | 0.18 | 0.18 | 50 | 1020.7 |
| 20260831151704 | 71 | 230 | 5.0 | 13.0 | 0.00 | 0.18 | 0.18 | 51 | 1020.7 |
| 20260831151458 | 71 | 240 | 5.0 | 14.0 | 0.00 | 0.18 | 0.18 | 49 | 1020.6 |
| 20260831151253 | 71 | 256 | 5.0 | 14.0 | 0.00 | 0.18 | 0.18 | 48 | 1020.6 |
| 20260831151048 | 71 | 256 | 6.0 | 14.0 | 0.00 | 0.18 | 0.18 | 49 | 1020.6 |
| 20260831150521 | 71 | 213 | 4.0 | 21.0 | 0.00 | 0.18 | 0.18 | 47 | 1020.6 |
| 20260831150322 | 71 | 270 | 4.0 | 21.0 | 0.00 | 0.18 | 0.18 | 45 | 1020.6 |
| 20260831150121 | 71 | 227 | 4.0 | 21.0 | 0.00 | 0.18 | 0.18 | 53 | 1020.7 |
| 20260831145918 | 71 | 261 | 4.0 | 21.0 | 0.00 | 0.18 | 0.18 | 50 | 1020.6 |
| 20260831145351 | 70 | 238 | 7.0 | 21.0 | 0.00 | 0.18 | 0.18 | 46 | 1020.6 |
| 20260831145149 | 70 | 208 | 8.0 | 21.0 | 0.00 | 0.18 | 0.18 | 48 | 1020.6 |
| 20260831144940 | 70 | 231 | 8.0 | 21.0 | 0.00 | 0.18 | 0.18 | 46 | 1020.5 |
| 20260831144736 | 71 | 228 | 6.0 | 21.0 | 0.00 | 0.18 | 0.18 | 43 | 1020.4 |
| 20260831144222 | 71 | 234 | 5.0 | 15.0 | 0.00 | 0.18 | 0.18 | 46 | 1020.6 |
| 20260831144014 | 71 | 252 | 5.0 | 17.0 | 0.00 | 0.18 | 0.18 | 46 | 1020.6 |
| 20260831143803 | 71 | 276 | 5.0 | 17.0 | 0.00 | 0.18 | 0.18 | 48 | 1020.5 |
| 20260831143559 | 71 | 261 | 5.0 | 17.0 | 0.00 | 0.18 | 0.18 | 46 | 1020.5 |
| 20260831143355 | 71 | 246 | 6.0 | 17.0 | 0.00 | 0.18 | 0.18 | 45 | 1020.5 |
| 20260831143153 | 71 | 238 | 6.0 | 17.0 | 0.00 | 0.18 | 0.18 | 47 | 1020.5 |
| 20260831142948 | 71 | 214 | 6.0 | 17.0 | 0.00 | 0.18 | 0.18 | 48 | 1020.5 |
| 20260831142738 | 71 | 217 | 6.0 | 17.0 | 0.00 | 0.18 | 0.18 | 49 | 1020.5 |
| 20260831142535 | 71 | 250 | 6.0 | 17.0 | 0.00 | 0.18 | 0.18 | 47 | 1020.4 |
| 20260831142334 | 71 | 257 | 5.0 | 17.0 | 0.00 | 0.18 | 0.18 | 46 | 1020.5 |
| 20260831142134 | 71 | 244 | 4.0 | 16.0 | 0.00 | 0.18 | 0.18 | 46 | 1020.4 |
| 20260831141925 | 71 | 255 | 4.0 | 16.0 | 0.00 | 0.18 | 0.18 | 49 | 1020.4 |
| 20260831140737 | 71 | 274 | 7.0 | 16.0 | 0.00 | 0.18 | 0.18 | 48 | 1020.5 |
| 20260831140528 | 71 | 253 | 7.0 | 16.0 | 0.00 | 0.18 | 0.18 | 44 | 1020.4 |
| 20260831140320 | 71 | 251 | 7.0 | 16.0 | 0.00 | 0.18 | 0.18 | 47 | 1020.3 |
| 20260831140116 | 71 | 232 | 8.0 | 16.0 | 0.00 | 0.18 | 0.18 | 45 | 1020.4 |
| 20260831135913 | 71 | 238 | 7.0 | 16.0 | 0.00 | 0.18 | 0.18 | 45 | 1020.4 |
| 20260831135710 | 71 | 268 | 6.0 | 16.0 | 0.00 | 0.18 | 0.18 | 50 | 1020.3 |
| 20260831135503 | 71 | 238 | 5.0 | 16.0 | 0.00 | 0.18 | 0.18 | 48 | 1020.4 |
| 20260831135257 | 71 | 259 | 5.0 | 14.0 | 0.00 | 0.18 | 0.18 | 46 | 1020.3 |
| 20260831135055 | 71 | 233 | 4.0 | 13.0 | 0.00 | 0.18 | 0.18 | 46 | 1020.4 |
| 20260831134540 | 70 | 224 | 4.0 | 13.0 | 0.00 | 0.18 | 0.18 | 51 | 1020.4 |
| 20260831134338 | 70 | 217 | 5.0 | 13.0 | 0.00 | 0.18 | 0.18 | 51 | 1020.2 |
| 20260831134132 | 70 | 68 | 5.0 | 13.0 | 0.00 | 0.18 | 0.18 | 48 | 1020.4 |
| 20260831133930 | 70 | 243 | 4.0 | 13.0 | 0.00 | 0.18 | 0.18 | 51 | 1020.3 |
| 20260831133729 | 70 | 219 | 5.0 | 13.0 | 0.00 | 0.18 | 0.18 | 51 | 1020.3 |
| 20260831133528 | 70 | 302 | 5.0 | 14.0 | 0.00 | 0.18 | 0.18 | 51 | 1020.3 |
| 20260831133320 | 70 | 246 | 5.0 | 14.0 | 0.00 | 0.18 | 0.18 | 52 | 1020.3 |
| 20260831133120 | 70 | 257 | 6.0 | 14.0 | 0.00 | 0.18 | 0.18 | 52 | 1020.3 |
| 20260831132913 | 70 | 277 | 6.0 | 14.0 | 0.00 | 0.18 | 0.18 | 54 | 1020.3 |
| 20260831132709 | 70 | 229 | 6.0 | 14.0 | 0.00 | 0.18 | 0.18 | 53 | 1020.4 |
| 20260831132509 | 70 | 271 | 6.0 | 14.0 | 0.00 | 0.18 | 0.18 | 52 | 1020.4 |
| 20260831132300 | 70 | 262 | 6.0 | 14.0 | 0.00 | 0.18 | 0.18 | 55 | 1020.5 |
| 20260831132050 | 70 | 254 | 7.0 | 14.0 | 0.00 | 0.18 | 0.18 | 57 | 1020.4 |
| 20260831131847 | 70 | 278 | 7.0 | 14.0 | 0.00 | 0.18 | 0.18 | 54 | 1020.4 |
| 20260831131639 | 70 | 255 | 7.0 | 13.0 | 0.00 | 0.18 | 0.18 | 53 | 1020.5 |
| 20260831131434 | 70 | 238 | 7.0 | 13.0 | 0.00 | 0.18 | 0.18 | 55 | 1020.4 |
| 20260831131231 | 70 | 238 | 7.0 | 13.0 | 0.00 | 0.18 | 0.18 | 53 | 1020.5 |
| 20260831130348 | 70 | 229 | 5.0 | 14.0 | 0.00 | 0.18 | 0.18 | 59 | 1020.6 |
| 20260831130141 | 70 | 288 | 5.0 | 14.0 | 0.00 | 0.18 | 0.18 | 61 | 1020.6 |
| 20260831125936 | 70 | 287 | 6.0 | 14.0 | 0.00 | 0.18 | 0.18 | 61 | 1020.6 |
| 20260831125411 | 69 | 238 | 6.0 | 14.0 | 0.00 | 0.18 | 0.18 | 59 | 1020.5 |
| 20260831125210 | 69 | 252 | 7.0 | 14.0 | 0.00 | 0.18 | 0.18 | 57 | 1020.5 |
| 20260831125000 | 69 | 263 | 7.0 | 14.0 | 0.00 | 0.18 | 0.18 | 59 | 1020.5 |
| 20260831124754 | 69 | 262 | 7.0 | 14.0 | 0.00 | 0.18 | 0.18 | 59 | 1020.5 |
| 20260831124543 | 69 | 250 | 7.0 | 14.0 | 0.00 | 0.18 | 0.18 | 57 | 1020.6 |
| 20260831124336 | 69 | 248 | 7.0 | 17.0 | 0.00 | 0.18 | 0.18 | 56 | 1020.5 |
| 20260831123820 | 70 | 259 | 5.0 | 17.0 | 0.00 | 0.18 | 0.18 | 62 | 1020.6 |
| 20260831123612 | 69 | 233 | 6.0 | 17.0 | 0.00 | 0.18 | 0.18 | 61 | 1020.5 |
| 20260831123412 | 69 | 242 | 6.0 | 17.0 | 0.00 | 0.18 | 0.18 | 60 | 1020.5 |
| 20260831123202 | 69 | 255 | 6.0 | 17.0 | 0.00 | 0.18 | 0.18 | 61 | 1020.5 |
| 20260831122955 | 69 | 246 | 7.0 | 17.0 | 0.00 | 0.18 | 0.18 | 60 | 1020.4 |
| 20260831122430 | 69 | 211 | 5.0 | 17.0 | 0.00 | 0.18 | 0.18 | 62 | 1020.5 |
| 20260831122221 | 69 | 244 | 5.0 | 14.0 | 0.00 | 0.18 | 0.18 | 62 | 1020.6 |
| 20260831122022 | 69 | 213 | 5.0 | 14.0 | 0.00 | 0.18 | 0.18 | 62 | 1020.5 |
| 20260831121130 | 69 | 273 | 5.0 | 16.0 | 0.00 | 0.18 | 0.18 | 68 | 1020.6 |
| 20260831120922 | 69 | 232 | 5.0 | 16.0 | 0.00 | 0.18 | 0.18 | 69 | 1020.6 |
| 20260831120035 | 68 | 290 | 6.0 | 16.0 | 0.00 | 0.18 | 0.18 | 68 | 1020.6 |
| 20260831115828 | 68 | 246 | 6.0 | 16.0 | 0.00 | 0.18 | 0.18 | 69 | 1020.7 |
| 20260831115629 | 68 | 251 | 6.0 | 16.0 | 0.00 | 0.18 | 0.18 | 67 | 1020.7 |
| 20260831115112 | 68 | 285 | 4.0 | 15.0 | 0.00 | 0.18 | 0.18 | 68 | 1020.6 |
| 20260831114903 | 68 | 238 | 4.0 | 13.0 | 0.00 | 0.18 | 0.18 | 69 | 1020.7 |
| 20260831114335 | 68 | 238 | 3.0 | 11.0 | 0.00 | 0.18 | 0.18 | 71 | 1020.6 |
| 20260831113808 | 68 | 285 | 4.0 | 11.0 | 0.00 | 0.18 | 0.18 | 69 | 1020.8 |
| 20260831113241 | 68 | 236 | 4.0 | 11.0 | 0.00 | 0.18 | 0.18 | 72 | 1020.6 |
| 20260831113038 | 67 | 259 | 4.0 | 11.0 | 0.00 | 0.18 | 0.18 | 70 | 1020.6 |
| 20260831112828 | 67 | 207 | 4.0 | 10.0 | 0.00 | 0.18 | 0.18 | 74 | 1020.8 |
| 20260831112629 | 67 | 209 | 5.0 | 16.0 | 0.00 | 0.18 | 0.18 | 72 | 1020.7 |
| 20260831112423 | 67 | 283 | 5.0 | 16.0 | 0.00 | 0.18 | 0.18 | 72 | 1020.7 |
| 20260831112213 | 67 | 260 | 5.0 | 16.0 | 0.00 | 0.18 | 0.18 | 72 | 1020.6 |
| 20260831112014 | 66 | 255 | 6.0 | 16.0 | 0.00 | 0.18 | 0.18 | 71 | 1020.8 |
| 20260831111811 | 67 | 248 | 6.0 | 16.0 | 0.00 | 0.18 | 0.18 | 71 | 1020.7 |
| 20260831111606 | 67 | 247 | 6.0 | 17.0 | 0.00 | 0.18 | 0.18 | 72 | 1020.7 |
| 20260831111402 | 67 | 244 | 6.0 | 17.0 | 0.00 | 0.18 | 0.18 | 72 | 1020.6 |
| 20260831111202 | 67 | 217 | 6.0 | 17.0 | 0.00 | 0.18 | 0.18 | 71 | 1020.8 |
| 20260831110633 | 67 | 252 | 7.0 | 17.0 | 0.00 | 0.18 | 0.18 | 73 | 1020.8 |
| 20260831110428 | 67 | 220 | 7.0 | 17.0 | 0.00 | 0.18 | 0.18 | 73 | 1020.8 |
| 20260831110222 | 67 | 248 | 7.0 | 17.0 | 0.00 | 0.18 | 0.18 | 75 | 1020.8 |
| 20260831110016 | 67 | 236 | 6.0 | 17.0 | 0.00 | 0.18 | 0.18 | 73 | 1020.8 |
| 20260831105808 | 67 | 245 | 5.0 | 17.0 | 0.00 | 0.18 | 0.18 | 74 | 1020.7 |
| 20260831105608 | 67 | 233 | 5.0 | 14.0 | 0.00 | 0.18 | 0.18 | 75 | 1020.8 |
| 20260831105401 | 67 | 255 | 4.0 | 14.0 | 0.00 | 0.18 | 0.18 | 76 | 1020.8 |
| 20260831105152 | 67 | 285 | 4.0 | 14.0 | 0.00 | 0.18 | 0.18 | 75 | 1020.8 |
| 20260831104625 | 67 | 229 | 4.0 | 14.0 | 0.00 | 0.18 | 0.18 | 79 | 1020.8 |
| 20260831104415 | 67 | 231 | 4.0 | 14.0 | 0.00 | 0.18 | 0.18 | 77 | 1020.7 |
| 20260831104208 | 67 | 225 | 3.0 | 14.0 | 0.00 | 0.18 | 0.18 | 78 | 1020.8 |
| 20260831104005 | 67 | 257 | 3.0 | 14.0 | 0.00 | 0.18 | 0.18 | 78 | 1020.8 |
| 20260831103806 | 67 | 226 | 3.0 | 14.0 | 0.00 | 0.18 | 0.18 | 77 | 1020.8 |
| 20260831103559 | 67 | 222 | 3.0 | 14.0 | 0.00 | 0.18 | 0.18 | 79 | 1020.8 |
| 20260831103357 | 67 | 264 | 4.0 | 14.0 | 0.00 | 0.18 | 0.18 | 82 | 1020.7 |
| 20260831103148 | 66 | 235 | 5.0 | 14.0 | 0.00 | 0.18 | 0.18 | 80 | 1020.8 |
| 20260831102942 | 66 | 236 | 6.0 | 14.0 | 0.00 | 0.18 | 0.18 | 79 | 1020.8 |
| 20260831102738 | 66 | 233 | 6.0 | 14.0 | 0.00 | 0.18 | 0.18 | 80 | 1020.8 |
| 20260831102539 | 66 | 205 | 5.0 | 14.0 | 0.00 | 0.18 | 0.18 | 79 | 1020.8 |
| 20260831102338 | 66 | 252 | 5.0 | 14.0 | 0.00 | 0.18 | 0.18 | 80 | 1020.8 |
| 20260831102136 | 65 | 236 | 5.0 | 12.0 | 0.00 | 0.18 | 0.18 | 80 | 1020.9 |
| 20260831101927 | 65 | 244 | 4.0 | 12.0 | 0.00 | 0.18 | 0.18 | 80 | 1020.8 |
| 20260831101719 | 66 | 232 | 4.0 | 11.0 | 0.00 | 0.18 | 0.18 | 80 | 1020.9 |
| 20260831101512 | 66 | 300 | 4.0 | 12.0 | 0.00 | 0.18 | 0.18 | 81 | 1020.9 |
| 20260831101310 | 65 | 295 | 4.0 | 12.0 | 0.00 | 0.18 | 0.18 | 80 | 1020.8 |
| 20260831101101 | 65 | 231 | 4.0 | 12.0 | 0.00 | 0.18 | 0.18 | 80 | 1020.8 |
| 20260831100535 | 65 | 247 | 4.0 | 12.0 | 0.00 | 0.18 | 0.18 | 80 | 1020.8 |
| 20260831100334 | 65 | 244 | 4.0 | 12.0 | 0.00 | 0.18 | 0.18 | 79 | 1020.8 |
| 20260831095810 | 66 | 237 | 4.0 | 12.0 | 0.00 | 0.18 | 0.18 | 79 | 1020.8 |